Dodge City, KS

9:03 AM CDT on October 23, 2017 (GMT -0500)
Dodge City Regional

Weather History for KDDC - April, 2014

Change the Weather History Date:

Saturday, April 19, 2014

  Actual Average Record
Temperature  
Mean Temperature 66 °F -  
Max Temperature 80 °F 69 °F 92 °F (1961)
Min Temperature 52 °F 43 °F 24 °F (1953)
Cooling Degree Days 1    
Growing Degree Days 16 (Base 50)    
Moisture  
Dew Point 46 °F    
Average Humidity 53    
Maximum Humidity 82    
Minimum Humidity 19    
Precipitation  
Precipitation 0.00 in - - ()
Sea Level Pressure  
Sea Level Pressure 29.95 in    
Wind  
Wind Speed 20 mph (South)    
Max Wind Speed 29 mph    
Max Gust Speed 41 mph    
Visibility 10 miles    
Events      
Averages and records for this station are not official NWS values.
T = Trace of Precipitation, MM = Missing Value Source: NWS Daily Summary

Daily Weather History Graph

Daily Weather History Graph

Search for Another Location

Airport or City:

Trip Planner

Search our weather history database for the weather conditions in past years. The results will help you decide how hot, cold, wet, or windy it might be!

Date:

Astronomy

Apr. 19, 2014 Rise Set
Actual Time 6:59 AM CDT 8:19 PM CDT
Civil Twilight 6:31 AM CDT 8:46 PM CDT
Nautical Twilight 5:59 AM CDT 9:19 PM CDT
Astronomical Twilight 5:24 AM CDT 9:53 PM CDT
Moon 12:02 AM CDT (4/19) 10:21 AM CDT (4/19)
Length of Visible Light 14h 14m
Length of Day
13h 20m
Waning Gibbous, 78% of the Moon is Illuminated
Apr 19
Waning Gibbous
Apr 22
Last Quarter
Apr 29
New
May 6
First Quarter
May 14
Full

Hourly Weather History & Observations

Time (CDT) Temp. Dew Point Humidity Pressure Visibility Wind Dir Wind Speed Gust Speed Precip Events Conditions
12:52 AM 53.1 °F 45.0 °F 74% 30.02 in 10.0 mi South 16.1 mph - N/A   Clear
1:52 AM 52.0 °F 45.0 °F 77% 30.01 in 10.0 mi South 18.4 mph - N/A   Clear
2:52 AM 52.0 °F 45.0 °F 77% 29.99 in 10.0 mi South 19.6 mph - N/A   Clear
3:52 AM 51.8 °F 46.4 °F 82% 30.02 in 10.0 mi South 19.6 mph - N/A   Clear
4:52 AM 54.0 °F 46.0 °F 75% 29.97 in 10.0 mi South 17.3 mph - N/A   Clear
5:52 AM 53.1 °F 46.0 °F 77% 29.97 in 10.0 mi South 17.3 mph 25.3 mph N/A   Clear
6:52 AM 53.6 °F 46.4 °F 77% 30.02 in 10.0 mi South 21.9 mph - N/A   Clear
7:52 AM 54.0 °F 46.0 °F 75% 29.97 in 9.0 mi South 23.0 mph 29.9 mph N/A   Clear
8:52 AM 57.0 °F 46.9 °F 69% 29.97 in 9.0 mi South 20.7 mph - N/A   Clear
9:52 AM 62.1 °F 48.0 °F 60% 29.96 in 10.0 mi SSW 25.3 mph 41.4 mph N/A   Clear
10:52 AM 68.0 °F 48.0 °F 49% 29.95 in 10.0 mi South 28.8 mph 39.1 mph N/A   Clear
11:52 AM 71.1 °F 46.9 °F 42% 29.95 in 10.0 mi SSW 27.6 mph 36.8 mph N/A   Clear
12:52 PM 78.1 °F 46.0 °F 32% 29.91 in 10.0 mi SSW 26.5 mph 36.8 mph N/A   Clear
1:52 PM 73.9 °F 46.0 °F 37% 29.92 in 10.0 mi SSW 25.3 mph - N/A   Clear
2:52 PM 73.0 °F 46.9 °F 39% 29.93 in 10.0 mi South 24.2 mph 29.9 mph N/A   Clear
3:52 PM 75.2 °F 48.2 °F 38% 29.97 in 10.0 mi South 23.0 mph 29.9 mph N/A   Clear
4:52 PM 80.1 °F 46.9 °F 31% 29.88 in 10.0 mi South 20.7 mph 29.9 mph N/A   Clear
5:52 PM 78.1 °F 44.1 °F 30% 29.88 in 10.0 mi South 25.3 mph 31.1 mph N/A   Clear
6:52 PM 77.0 °F 43.0 °F 30% 29.89 in 10.0 mi South 25.3 mph 34.5 mph N/A   Clear
7:52 PM 73.9 °F 45.0 °F 35% 29.90 in 10.0 mi South 19.6 mph - N/A   Clear
8:52 PM 69.1 °F 46.9 °F 45% 29.92 in 10.0 mi South 12.7 mph - N/A   Clear
9:52 PM 64.9 °F 46.0 °F 50% 29.94 in 10.0 mi South 15.0 mph - N/A   Clear
10:52 PM 62.1 °F 46.9 °F 58% 29.95 in 10.0 mi South 10.4 mph - N/A   Clear
11:52 PM 59.0 °F 46.9 °F 64% 29.96 in 10.0 mi South 8.1 mph - N/A   Clear